EHI
0 0 0 0 0 0 0 0 0 0 0 0 0 0 0 0 0 0 0 0 0 0 0 0 0 0 0 0 0 0 0 0 0 1 3 3 1 2 7 10 11 10 9 10
0 0 0 0 0 0 0 0 0 0 0 0 0 0 0 0 0 0 0 0 0 0 0 0 0 0 0 0 0 0 0 0 0 1 2 2 2 3 7 11 11 11 13 14
0 0 0 0 0 0 0 0 0 0 0 0 0 0 0 0 0 0 0 0 0 0 0 0 0 0 0 0 0 0 0 0 0 1 1 2 2 4 7 11 12 11 12 14
0 0 0 0 0 0 0 0 0 0 0 0 0 0 0 0 0 0 0 0 0 0 0 0 0 0 0 0 0 0 0 0 0 0 0 1 2 4 6 9 10 8 8 9
0 0 0 0 0 0 0 0 0 0 0 0 0 0 0 0 0 0 0 0 0 0 0 0 0 0 0 0 0 0 0 0 0 0 0 0 1 2 3 5 5 5 4 5
0 0 0 0 0 0 0 0 0 0 0 0 0 0 0 0 0 0 0 0 0 0 0 0 0 0 0 0 0 0 0 0 0 0 0 0 0 0 1 2 2 2 2 2
0 0 0 0 0 0 0 0 0 0 0 0 0 0 0 0 0 0 0 0 0 0 0 0 0 0 0 0 0 0 0 0 0 0 0 0 0 0 0 1 1 0 1 3
0 0 0 0 0 0 0 0 0 0 0 0 0 0 0 0 0 0 0 0 0 0 0 0 0 0 0 0 0 0 0 0 0 0 0 0 0 0 0 0 0 0 1 4
0 0 0 0 0 0 0 0 0 0 0 0 0 0 0 0 0 0 0 0 0 0 0 0 0 0 0 0 0 0 0 0 0 0 0 0 0 0 0 0 0 1 1 2
0 0 0 0 0 0 0 0 0 0 0 0 0 0 0 0 0 0 0 0 0 0 0 0 0 0 0 0 0 0 0 0 0 0 0 0 0 0 0 0 0 1 1 1
0 0 0 0 0 0 0 0 0 0 0 0 0 0 0 0 0 0 0 0 0 0 0 0 0 0 0 0 0 0 0 0 0 0 0 0 0 0 0 0 1 1 1 1
0 0 0 0 0 0 0 0 0 0 0 0 0 0 0 0 0 0 0 0 0 0 0 0 0 0 0 0 0 0 0 0 0 0 0 0 0 1 0 0 1 0 0 1
0 0 0 0 0 0 0 0 0 0 0 0 0 0 0 0 0 0 0 0 0 0 0 0 0 0 0 0 0 0 0 0 0 0 0 0 0 0 0 0 0 0 0 0
0 0 0 0 0 0 0 0 0 0 0 0 0 0 0 0 0 0 0 0 0 0 0 0 0 0 0 0 0 0 0 0 0 0 0 0 0 0 0 0 0 0 0 0
0 0 0 0 0 0 0 0 0 0 0 0 0 0 0 0 0 0 0 0 0 0 0 0 0 0 0 0 0 0 0 0 0 0 0 0 0 0 0 0 0 0 0 0
0 0 0 0 0 0 0 0 0 0 0 0 0 0 0 0 0 0 0 0 0 0 0 0 0 0 0 0 0 0 0 0 0 0 0 0 0 0 0 0 0 0 0 0
0 0 0 0 0 0 0 0 0 0 0 0 0 0 0 0 0 0 0 0 0 0 0 0 0 0 0 0 0 0 0 0 0 0 0 0 0 0 0 0 0 0 0 0
0 0 0 0 0 0 0 0 0 0 0 0 0 0 0 0 0 0 0 0 0 0 0 0 0 0 0 0 0 0 0 0 0 0 0 0 0 0 0 0 0 0 0 0
0 0 0 0 0 0 0 0 0 0 0 0 0 0 0 0 0 0 0 0 0 0 0 0 0 0 0 0 0 0 0 0 0 0 0 0 0 0 0 0 0 0 0 0
0 0 0 0 0 0 0 0 0 0 0 0 0 0 0 0 0 0 0 0 0 0 0 0 0 0 0 0 0 0 0 0 0 0 0 0 0 0 0 0 0 0 0 0
0 0 0 0 0 0 0 0 0 0 0 0 0 0 0 0 0 0 0 0 0 0 0 0 0 0 0 0 0 0 0 0 0 0 0 0 0 0 0 0 0 0 0 0
0 0 0 0 0 0 0 0 0 0 0 0 0 0 0 0 0 0 0 0 0 0 0 0 0 0 0 0 0 0 0 0 0 0 0 0 0 0 0 0 0 0 0 0
0 0 0 0 0 0 0 0 0 0 0 0 0 0 0 0 0 0 0 0 0 0 0 0 0 0 0 0 0 0 0 0 0 0 0 0 0 0 0 0 0 0 0 0
0 0 0 0 0 0 0 0 0 0 0 0 0 0 0 0 0 0 0 0 0 0 0 0 0 0 0 0 0 0 0 0 0 0 0 0 0 0 0 0 0 0 0 0
0 0 0 0 0 0 0 0 0 0 0 0 0 0 0 0 0 0 0 0 0 0 0 0 0 0 0 0 0 0 0 0 0 0 0 0 0 0 0 0 0 0 0 0
0 0 0 0 0 0 0 0 0 0 0 0 0 0 0 0 0 0 0 0 0 0 0 0 0 0 0 0 0 0 0 0 0 0 0 0 0 0 0 0 0 0 0 0
Wind_Speed
3 3 4 5 4 3 1 1 4 6 4 5 9 9 7 8 9 10 11 12 13 13 13 13 13 13 13 13 13 12 12 12 10 8 7 7 6 6 6 7 9 9 9 9
6 6 5 3 3 2 2 3 5 7 4 3 7 7 6 7 9 10 11 12 13 14 14 14 14 13 14 14 14 13 13 12 11 8 8 7 8 7 6 6 7 9 10 10
6 6 3 3 4 3 2 1 3 5 6 5 5 6 5 5 6 8 10 10 12 13 14 14 14 14 14 14 14 12 13 13 12 12 8 7 6 6 5 5 5 7 9 10
9 5 3 4 6 4 2 3 2 6 7 4 5 3 5 3 5 9 10 11 12 13 13 13 14 14 14 14 13 13 13 13 12 11 9 10 7 7 6 5 4 5 7 8
7 5 4 4 5 5 4 1 2 5 4 4 3 6 5 2 6 9 10 11 12 12 12 13 13 13 13 14 13 13 14 13 13 12 10 9 8 7 6 5 5 4 4 6
8 4 5 4 3 3 2 5 5 5 6 4 1 5 3 5 8 9 10 11 11 12 12 13 13 13 13 13 13 13 14 14 13 12 11 9 10 9 7 6 5 3 3 3
7 6 4 2 2 3 3 5 4 5 5 1 2 2 4 4 5 7 9 10 11 11 12 12 14 14 14 14 14 14 15 14 14 13 11 10 9 9 7 7 5 4 3 2
6 5 4 5 4 2 1 5 5 5 3 2 2 1 4 2 3 5 6 8 9 11 11 12 13 13 13 13 13 14 14 14 14 13 11 10 9 6 5 6 6 5 3 3
3 6 5 5 4 3 1 1 4 4 2 2 2 2 3 1 2 4 6 7 9 10 11 12 12 12 13 13 13 13 13 13 14 13 12 10 10 9 8 7 6 4 4 3
1 6 4 2 3 5 5 2 3 4 4 2 2 1 2 2 4 5 7 8 9 10 11 11 11 11 11 11 11 12 13 13 13 13 11 9 9 9 8 7 7 6 5 4
1 4 6 4 2 3 1 1 1 1 4 5 2 3 3 2 4 6 7 8 9 10 10 10 10 10 10 11 11 11 12 12 12 12 11 11 9 9 9 8 8 7 6 5
1 2 4 4 3 2 2 3 3 3 1 2 2 3 4 1 3 4 6 6 7 8 9 10 10 10 10 11 11 11 11 12 12 11 11 10 10 10 10 9 9 7 6 6
3 4 5 6 6 5 2 1 1 1 1 1 2 4 5 2 2 3 4 5 6 7 9 9 9 9 10 10 11 11 11 11 12 11 11 11 11 11 11 10 9 8 8 7
3 2 3 3 4 4 4 4 3 4 2 1 1 0 2 2 1 2 3 4 6 7 8 9 9 9 10 10 10 11 11 10 11 11 11 11 11 11 10 10 10 9 9 8
4 2 3 4 3 2 3 4 6 5 3 3 1 2 1 1 1 1 2 3 5 6 8 9 9 9 10 10 10 10 10 10 10 11 11 11 11 10 10 10 10 10 9 9
3 3 5 4 3 3 5 6 7 6 5 5 4 4 2 2 2 2 1 2 4 6 7 9 9 9 9 10 10 10 10 10 10 10 10 10 10 10 10 10 10 10 10 9
5 5 5 4 3 5 8 8 10 6 6 6 6 3 5 5 4 3 1 2 3 5 6 8 8 9 9 9 9 9 9 9 9 10 10 10 10 10 10 10 10 10 9 9
5 5 3 2 5 6 3 3 5 7 7 8 5 4 6 5 3 3 2 2 2 3 5 7 7 8 8 8 9 8 8 9 9 10 10 10 10 10 10 10 10 10 9 8
2 4 4 3 4 4 3 6 7 7 7 10 10 8 8 5 5 5 4 2 2 3 4 5 6 6 7 7 8 8 8 9 9 9 10 10 10 9 9 10 9 9 8 8
2 4 4 4 5 4 3 7 6 5 6 10 12 11 11 10 7 4 5 3 1 1 3 4 4 5 5 6 7 7 8 9 9 8 8 8 8 9 9 9 8 8 7 7
6 6 6 6 6 4 5 9 9 6 0 10 13 12 13 11 3 6 6 4 2 0 1 2 3 4 4 5 6 7 8 8 8 7 7 7 8 8 8 8 7 7 7 7
7 6 6 5 6 2 12 11 10 3 5 8 11 12 12 9 6 6 6 5 3 2 0 2 2 3 3 4 5 6 6 6 5 5 6 7 7 7 7 8 8 8 8 8
7 6 3 6 3 4 12 8 5 3 6 8 11 12 12 11 9 8 7 6 4 2 1 1 2 2 2 3 4 5 4 4 4 5 5 6 6 6 7 7 7 7 7 6
6 4 5 7 8 7 11 10 7 7 6 8 10 12 12 12 10 10 8 6 5 3 2 1 1 1 2 2 3 3 3 2 2 4 4 4 5 6 7 6 6 7 7 6
5 8 7 8 6 5 10 14 13 10 8 9 10 11 13 12 11 10 8 7 5 4 3 2 1 1 1 1 1 2 2 2 2 3 3 3 4 4 5 6 6 6 7 7
9 10 9 6 6 7 5 10 15 14 13 13 13 12 12 11 11 10 8 7 6 5 4 3 2 2 1 1 1 1 1 2 2 2 2 2 2 2 3 3 4 6 6 7
Wind_Direction
64 98 66 36 15 2 6 182 117 101 109 94 104 101 75 50 38 28 23 17 13 8 5 5 360 356 353 352 349 346 341 340 335 328 321 311 298 284 265 251 240 232 229 226
138 82 51 50 68 104 144 160 125 120 128 135 125 106 85 54 41 29 19 14 10 2 1 4 359 357 355 353 349 345 344 340 337 329 316 303 299 288 274 264 249 236 230 226
97 74 72 93 78 100 82 344 153 146 143 160 178 160 105 72 45 34 24 16 10 4 358 1 359 358 355 354 351 346 345 342 339 333 322 314 305 291 281 271 256 244 233 226
84 78 100 89 55 342 109 48 164 172 195 167 241 244 109 53 36 28 20 15 9 4 359 1 358 357 355 355 351 348 345 343 342 336 330 324 312 302 296 291 277 256 239 228
94 70 62 62 42 357 53 72 193 202 228 208 213 274 105 53 17 17 11 8 5 1 358 358 358 354 354 356 353 350 347 346 346 341 336 329 323 312 306 303 291 273 250 233
97 77 36 42 69 47 139 161 155 193 228 234 20 292 74 35 4 357 359 1 360 358 357 355 355 354 356 357 355 351 349 348 346 345 342 340 335 329 322 316 307 297 268 238
122 97 73 4 203 146 235 242 224 209 213 96 60 291 55 34 359 346 345 350 353 355 356 355 354 354 355 356 355 353 352 350 348 347 345 344 343 333 329 325 313 303 289 264
171 121 63 29 358 353 5 300 313 314 334 99 168 333 77 39 344 337 342 348 353 357 357 356 355 353 353 355 355 354 353 351 350 350 348 347 347 340 336 332 327 318 308 286
169 115 102 56 34 326 278 26 343 302 292 259 127 132 151 193 326 343 350 353 356 356 354 352 352 354 355 355 355 355 354 352 353 353 352 353 352 353 349 342 338 333 325 313
124 131 124 142 179 65 20 19 252 279 301 300 141 143 42 17 353 349 350 352 353 351 351 352 352 353 355 354 355 356 357 355 355 356 357 358 356 357 356 355 356 353 346 341
193 153 141 167 49 36 132 142 4 330 326 315 326 92 61 4 347 341 348 351 350 349 351 352 353 354 356 358 0 359 358 357 358 357 358 360 1 3 3 4 3 3 360 0
57 223 137 112 87 5 0 14 303 306 75 315 304 92 113 295 327 330 338 345 347 349 351 352 354 356 359 2 3 2 0 360 360 359 1 4 6 8 8 9 8 12 18 20
169 211 164 163 172 180 172 102 336 326 218 244 287 93 129 229 292 323 334 344 349 352 354 357 358 1 1 2 3 3 3 1 1 3 5 9 11 11 9 11 13 16 24 31
254 235 299 1 78 140 167 173 206 250 262 237 266 4 171 226 275 326 341 348 352 356 359 2 360 4 3 3 4 4 5 3 3 7 9 11 11 10 10 13 17 21 24 30
248 180 114 86 101 165 190 194 206 238 279 282 260 257 273 209 249 312 331 346 354 0 2 2 2 3 2 5 5 5 3 4 5 11 12 11 9 11 16 18 19 25 26 28
222 175 160 157 170 220 235 222 218 230 235 237 242 239 171 177 213 234 283 348 351 358 360 360 1 1 1 4 2 2 3 5 7 15 15 10 11 15 18 21 24 28 28 27
183 189 206 179 175 241 242 216 208 211 211 217 224 185 162 195 205 220 257 318 342 352 352 355 357 359 359 2 359 2 4 5 10 18 20 15 15 19 18 20 26 28 30 31
187 190 220 200 205 239 93 112 200 219 221 217 221 181 186 194 189 209 245 286 331 350 345 352 353 357 355 359 0 1 9 13 15 19 21 21 19 21 20 21 23 25 31 33
249 206 218 234 245 254 179 187 193 213 231 210 208 195 186 176 198 202 195 230 310 337 339 344 343 346 352 2 359 0 14 20 22 20 19 21 20 20 21 23 22 22 29 35
170 234 238 230 255 251 132 148 170 215 239 190 196 191 181 185 209 167 158 180 212 319 333 338 336 348 2 6 358 5 18 21 23 18 18 21 21 23 23 24 22 24 30 37
187 199 224 236 253 258 128 144 167 218 150 161 187 187 184 197 202 121 150 167 177 205 337 333 341 0 7 1 358 15 23 24 19 16 22 26 25 28 27 26 25 28 34 38
206 198 208 215 235 228 143 163 202 238 108 168 184 186 187 189 160 156 166 168 176 186 231 340 345 9 12 4 358 22 29 23 21 24 29 30 29 27 28 31 30 32 33 38
222 228 228 226 269 67 177 194 204 188 181 181 186 185 185 184 181 181 182 180 179 188 192 317 323 351 23 17 359 15 31 20 25 33 38 34 34 36 31 29 32 35 35 34
197 208 234 249 250 222 209 215 206 205 200 186 185 182 185 188 186 185 187 186 184 185 191 238 290 332 27 23 5 10 15 5 18 36 38 41 36 38 40 33 31 34 29 29
195 184 220 244 247 221 219 215 207 199 196 184 182 184 188 190 190 190 190 190 189 185 188 215 264 311 353 4 2 17 353 321 2 37 44 50 47 39 39 49 39 31 43 26
192 194 202 232 209 204 197 194 194 191 191 188 183 184 189 193 192 192 194 191 193 193 193 208 231 260 295 322 343 43 337 297 320 26 40 43 48 44 39 51 84 73 57 53